Location: Koszewko
(53.2876°N, 14.9061°E)
Time: 22:46:51
(UTC+00:00)

Cosmos 1959 Rocket - Pass Details

Date: 03 March 2021
Orbit: 948 x 996 km, 83.0° (Epoch: 12 April)

Event Time Altitude Azimuth Distance (km) Brightness Sun altitude
Rises 19:11:57 0° 192° (SSW) 3,609 7.4 -22.8°
Reaches altitude 10° 19:14:25 10° 193° (SSW) 2,667 6.7 -23.1°
Maximum altitude 19:20:31 81° 281° (W) 969 4.5 -24.0°
Drops below altitude 10° 19:26:42 10° 9° (N) 2,695 7.0 -24.8°
Sets 19:29:13 0° 11° (N) 3,649 7.7 -25.2°
